Location: Unspecified
(0.0000°N, 0.0000°E)
Time: 23:52:56
(UTC+00:00)

Explorer 27 - Pass Details

Date: 22 May 2026
Orbit: 932 x 1295 km, 41.2° (Epoch: 7 June)

Event Time Altitude Azimuth Distance (km) Brightness Sun altitude
Exits shadow 04:29:16 - 313° (NW) 3,257 10.5 -20.4°
Reaches altitude 10° 04:30:58 10° 313° (NW) 2,631 10.0 -20.0°
Maximum altitude 04:37:11 87° 225° (SW) 935 7.8 -18.6°
Drops below altitude 10° 04:43:33 10° 135° (SE) 2,681 10.6 -17.1°
Sets 04:46:12 0° 134° (SE) 3,662 11.3 -16.5°
